• In Russia
  • List of Countries
  • For 7 days
  • Water Temperature
  • Satellite Maps
  • Weather Map
  • Weather Widgets
  • user-avatar
    Login

    Hourly Weather Innsbruck

    Today, 20 May, Monday

    Time Temperature Precipitation Wind Pressure Humidity
    00:00 +3°C° 0.3 mm 1 mps 587 mmHg 93%
    01:00 +3°C° 0.3 mm 1 mps 586 mmHg 94%
    02:00 +2°C° 1 mm 1 mps 586 mmHg 94%
    03:00 +1°C° 1 mm 0 mps 586 mmHg 95%
    04:00 +1°C° 1 mm 0 mps 586 mmHg 95%
    05:00 +3°C° 1.3 mm 1 mps 586 mmHg 95%
    06:00 +3°C° 1.3 mm 1 mps 586 mmHg 94%
    07:00 +3°C° 1.3 mm 1 mps 586 mmHg 94%
    08:00 +3°C° 0.8 mm 1 mps 586 mmHg 93%
    09:00 +4°C° 0.8 mm 1 mps 587 mmHg 92%
    10:00 +4°C° 0.8 mm 1 mps 587 mmHg 90%
    11:00 +5°C° 0.9 mm 1 mps 587 mmHg 89%
    12:00 +5°C° 0.9 mm 1 mps 588 mmHg 89%
    13:00 +5°C° 0.9 mm 1 mps 588 mmHg 88%
    14:00 +5°C° 0.8 mm 1 mps 588 mmHg 88%
    15:00 +5°C° 0.8 mm 1 mps 588 mmHg 89%
    16:00 +5°C° 0.8 mm 1 mps 588 mmHg 90%
    17:00 +4°C° 1.7 mm 1 mps 588 mmHg 92%
    18:00 +4°C° 1.7 mm 1 mps 588 mmHg 93%
    19:00 +3°C° 1.7 mm 1 mps 587 mmHg 94%
    20:00 +3°C° 3.3 mm 1 mps 588 mmHg 94%
    21:00 +2°C° 3.3 mm 1 mps 588 mmHg 94%
    22:00 +2°C° 3.3 mm 1 mps 588 mmHg 95%
    23:00 +2°C° 3.3 mm 1 mps 588 mmHg 95%

    Tomorrow, 21 May, Tuesday

    Time Temperature Precipitation Wind Pressure Humidity
    00:00 +2°C° 3.3 mm 1 mps 588 mmHg 95%
    01:00 +2°C° 3.3 mm 1 mps 588 mmHg 95%
    02:00 +2°C° 2.9 mm 1 mps 588 mmHg 95%
    03:00 +1°C° 2.9 mm 2 mps 588 mmHg 95%
    04:00 +1°C° 2.9 mm 2 mps 588 mmHg 95%
    05:00 +1°C° 1.7 mm 2 mps 589 mmHg 95%
    06:00 +1°C° 1.7 mm 2 mps 589 mmHg 95%
    07:00 +1°C° 1.7 mm 2 mps 589 mmHg 95%
    08:00 +3°C° 0.9 mm 1 mps 590 mmHg 95%
    09:00 +3°C° 0.9 mm 1 mps 590 mmHg 94%
    10:00 +3°C° 0.9 mm 1 mps 591 mmHg 94%
    11:00 +4°C° 1 mm 1 mps 591 mmHg 93%
    12:00 +4°C° 1 mm 1 mps 591 mmHg 93%
    13:00 +4°C° 1 mm 1 mps 592 mmHg 93%
    14:00 +3°C° 0.4 mm 2 mps 592 mmHg 91%
    15:00 +4°C° 0.4 mm 2 mps 592 mmHg 88%
    16:00 +4°C° 0.4 mm 2 mps 593 mmHg 86%
    17:00 +3°C° 0.2 mm 2 mps 593 mmHg 88%
    18:00 +4°C° 0.2 mm 1 mps 593 mmHg 90%
    19:00 +3°C° 0.2 mm 1 mps 593 mmHg 92%
    20:00 +3°C° 0.3 mm 1 mps 593 mmHg 92%
    21:00 +2°C° 0.3 mm 1 mps 593 mmHg 92%
    22:00 +2°C° 0.3 mm 1 mps 593 mmHg 92%
    23:00 +2°C° 0.3 mm 1 mps 593 mmHg 92%

    Day after tomorrow, 22 May, Wednesday

    Time Temperature Precipitation Wind Pressure Humidity
    00:00 +2°C° 0.3 mm 1 mps 593 mmHg 92%
    01:00 +2°C° 0.3 mm 1 mps 593 mmHg 92%
    02:00 +2°C° 0.3 mm 1 mps 593 mmHg 92%
    03:00 +2°C° 0.3 mm 1 mps 593 mmHg 92%
    04:00 +2°C° 0.3 mm 1 mps 593 mmHg 92%
    05:00 +2°C° 0.1 mm 1 mps 594 mmHg 92%
    06:00 +3°C° 0.1 mm 1 mps 594 mmHg 92%
    07:00 +4°C° 0.1 mm 1 mps 594 mmHg 92%
    08:00 +4°C° 0.1 mm 1 mps 595 mmHg 88%
    09:00 +4°C° 0.1 mm 2 mps 596 mmHg 84%
    10:00 +5°C° 0.1 mm 2 mps 596 mmHg 80%
    11:00 +6°C° 0.2 mm 2 mps 596 mmHg 79%
    12:00 +6°C° 0.2 mm 2 mps 597 mmHg 78%
    13:00 +6°C° 0.2 mm 2 mps 597 mmHg 77%
    14:00 +6°C° 0.1 mm 2 mps 597 mmHg 77%
    15:00 +6°C° 0.1 mm 2 mps 597 mmHg 77%
    16:00 +6°C° 0.1 mm 2 mps 597 mmHg 77%
    17:00 +5°C° 0.1 mm 2 mps 596 mmHg 82%
    18:00 +5°C° 0.1 mm 2 mps 596 mmHg 88%
    19:00 +4°C° 0.1 mm 2 mps 596 mmHg 93%
    20:00 +4°C° 0 mm 1 mps 596 mmHg 94%
    21:00 +3°C° 0 mm 1 mps 596 mmHg 96%
    22:00 +2°C° 0 mm 1 mps 596 mmHg 97%
    23:00 +2°C° 0 mm 1 mps 596 mmHg 97%

    23 May, Thursday

    Time Temperature Precipitation Wind Pressure Humidity
    00:00 +2°C° 0 mm 1 mps 596 mmHg 96%
    01:00 +1°C° 0 mm 1 mps 596 mmHg 96%
    02:00 +1°C° 0 mm 1 mps 596 mmHg 95%
    03:00 0°C° 0 mm 1 mps 596 mmHg 95%
    04:00 0°C° 0 mm 1 mps 595 mmHg 94%
    05:00 +1°C° 0 mm 1 mps 596 mmHg 90%
    06:00 +3°C° 0 mm 1 mps 597 mmHg 87%
    07:00 +4°C° 0 mm 1 mps 597 mmHg 83%
    08:00 +6°C° 0 mm 1 mps 598 mmHg 76%
    09:00 +8°C° 0 mm 1 mps 598 mmHg 70%
    10:00 +9°C° 0 mm 1 mps 599 mmHg 63%
    11:00 +10°C° 0 mm 1 mps 599 mmHg 60%
    12:00 +11°C° 0 mm 1 mps 599 mmHg 57%
    13:00 +12°C° 0 mm 1 mps 599 mmHg 54%
    14:00 +10°C° 0 mm 2 mps 599 mmHg 55%
    15:00 +10°C° 0 mm 2 mps 598 mmHg 56%
    16:00 +10°C° 0 mm 2 mps 598 mmHg 57%
    17:00 +8°C° 0 mm 2 mps 597 mmHg 63%
    18:00 +7°C° 0 mm 2 mps 597 mmHg 69%
    19:00 +7°C° 0 mm 1 mps 596 mmHg 74%
    20:00 +5°C° 0 mm 1 mps 596 mmHg 79%
    21:00 +3°C° 0 mm 1 mps 595 mmHg 84%
    22:00 +2°C° 0 mm 1 mps 594 mmHg 89%
    23:00 +2°C° 0 mm 1 mps 594 mmHg 88%

    24 May, Friday

    Time Temperature Precipitation Wind Pressure Humidity
    00:00 +1°C° 0 mm 1 mps 594 mmHg 87%
    01:00 +1°C° 0 mm 1 mps 594 mmHg 86%
    02:00 +1°C° 0 mm 1 mps 594 mmHg 86%
    03:00 +1°C° 0 mm 1 mps 593 mmHg 85%
    04:00 +1°C° 0 mm 1 mps 593 mmHg 84%
    05:00 +3°C° 0 mm 1 mps 594 mmHg 80%
    06:00 +5°C° 0 mm 1 mps 594 mmHg 76%
    07:00 +6°C° 0 mm 0 mps 595 mmHg 71%
    08:00 +8°C° 0 mm 0 mps 595 mmHg 65%
    09:00 +9°C° 0 mm 0 mps 596 mmHg 59%
    10:00 +11°C° 0 mm 0 mps 596 mmHg 53%
    11:00 +11°C° 0 mm 0 mps 596 mmHg 52%
    12:00 +13°C° 0 mm 1 mps 595 mmHg 51%
    13:00 +13°C° 0 mm 1 mps 595 mmHg 50%
    14:00 +12°C° 0.1 mm 1 mps 594 mmHg 53%
    15:00 +12°C° 0.1 mm 1 mps 594 mmHg 55%
    16:00 +11°C° 0.1 mm 1 mps 593 mmHg 57%
    17:00 +10°C° 0.5 mm 1 mps 592 mmHg 68%
    18:00 +8°C° 0.5 mm 1 mps 591 mmHg 79%
    19:00 +6°C° 0.5 mm 1 mps 591 mmHg 90%
    20:00 +6°C° 1.5 mm 1 mps 590 mmHg 92%
    21:00 +5°C° 1.5 mm 1 mps 590 mmHg 95%
    22:00 +5°C° 1.5 mm 1 mps 590 mmHg 97%
    23:00 +4°C° 2.3 mm 1 mps 590 mmHg 97%

    25 May, Saturday

    Time Temperature Precipitation Wind Pressure Humidity
    00:00 +4°C° 2.3 mm 1 mps 589 mmHg 98%
    01:00 +3°C° 2.3 mm 1 mps 589 mmHg 98%
    02:00 +3°C° 2.1 mm 1 mps 589 mmHg 98%
    03:00 +2°C° 2.1 mm 2 mps 589 mmHg 98%
    04:00 +2°C° 2.1 mm 2 mps 589 mmHg 97%
    05:00 +2°C° 1.3 mm 2 mps 589 mmHg 97%
    06:00 +2°C° 1.3 mm 2 mps 589 mmHg 97%
    07:00 +3°C° 1.3 mm 1 mps 589 mmHg 96%
    08:00 +2°C° 0.5 mm 2 mps 590 mmHg 94%
    09:00 +3°C° 0.5 mm 2 mps 590 mmHg 91%
    10:00 +3°C° 0.5 mm 2 mps 591 mmHg 89%
    11:00 +4°C° 0.4 mm 2 mps 591 mmHg 87%
    12:00 +4°C° 0.4 mm 2 mps 592 mmHg 85%
    13:00 +5°C° 0.4 mm 2 mps 592 mmHg 83%
    14:00 +5°C° 0.3 mm 2 mps 592 mmHg 82%
    15:00 +5°C° 0.3 mm 2 mps 592 mmHg 82%
    16:00 +5°C° 0.3 mm 2 mps 592 mmHg 81%
    17:00 +5°C° 0.2 mm 2 mps 592 mmHg 85%
    18:00 +4°C° 0.2 mm 2 mps 592 mmHg 88%
    19:00 +3°C° 0.2 mm 2 mps 592 mmHg 92%
    20:00 +3°C° 0.1 mm 2 mps 592 mmHg 93%
    21:00 +3°C° 0.1 mm 1 mps 592 mmHg 95%
    22:00 +2°C° 0.1 mm 1 mps 592 mmHg 97%
    23:00 +2°C° 0.2 mm 1 mps 592 mmHg 96%
    Show more